Theta_e
315 319 322 323 320 317 321 322 321 322 321 320 321 321 319 322 324 326 337 338 337 336 333 333 333 330 330 331 333 334 334 334 334 335 335 334 335 335 336 336 337 336 336 336 336 336 334 336 334
312 318 322 322 319 320 319 318 321 319 320 321 320 321 321 325 330 336 338 338 338 338 337 332 334 333 332 332 333 334 334 334 335 335 335 335 335 335 335 336 336 337 338 337 336 337 337 336 336
308 318 322 318 317 318 318 317 318 318 320 320 319 322 322 325 330 332 336 337 336 337 338 333 334 334 334 332 332 334 334 334 335 335 335 335 335 335 335 336 336 337 337 334 335 335 335 334 333
309 321 320 318 319 317 318 318 317 317 321 320 318 318 325 330 331 331 334 336 337 334 336 333 334 336 334 332 333 333 334 334 334 334 334 335 336 334 334 334 334 333 323 320 321 321 320 318 317
318 322 318 320 318 317 317 318 319 317 317 319 318 317 324 330 332 332 333 333 336 334 332 335 338 335 333 332 333 333 334 334 335 338 336 335 332 333 333 332 324 321 322 321 320 319 319 319 321
320 318 317 319 318 316 315 319 318 316 317 317 318 318 322 326 331 329 331 334 337 337 335 337 337 333 332 333 333 334 334 335 336 337 333 331 332 332 327 322 323 323 322 321 324 327 329 330 330
316 313 316 317 317 317 316 315 315 315 315 317 317 320 322 325 328 329 331 336 338 338 337 336 336 333 333 333 333 334 335 335 334 335 331 331 328 323 324 324 323 323 325 328 329 329 329 327 323
317 311 315 313 315 317 313 313 313 312 313 316 317 317 319 322 329 326 328 333 336 334 335 335 336 333 333 333 333 334 333 333 333 329 327 324 324 325 324 324 325 327 329 329 328 325 320 313 310
315 312 313 314 314 314 312 311 313 313 314 313 316 318 323 321 329 327 327 329 331 333 334 335 335 334 333 332 332 332 330 331 331 328 327 327 326 326 326 327 328 329 328 326 322 315 310 307 304
312 311 312 311 312 313 313 311 311 311 311 312 316 316 315 326 325 327 326 326 328 330 332 334 333 333 334 332 332 330 330 332 331 331 330 328 327 327 328 328 328 327 323 319 312 307 304 303 303
310 311 310 312 314 309 312 309 310 309 308 312 315 313 313 314 325 326 327 326 327 327 329 330 332 331 332 333 332 331 330 331 331 332 332 329 328 328 328 328 326 322 316 308 305 303 303 303 303
308 308 310 310 308 306 305 307 307 308 309 310 310 311 311 310 314 321 326 327 327 327 327 327 330 325 324 330 331 331 331 331 331 331 331 329 328 328 328 327 322 314 306 304 303 303 303 302 302
305 305 305 306 305 305 306 305 306 306 306 307 307 308 308 308 309 313 315 323 324 326 326 327 329 328 324 325 327 327 332 331 330 331 331 330 329 329 328 323 315 306 304 303 303 303 303 302 302
304 304 304 304 305 304 304 303 304 305 306 306 306 306 307 308 308 308 310 316 321 324 324 324 326 328 325 324 327 328 332 330 330 330 331 330 329 328 326 320 308 304 302 303 303 303 302 301 301
304 302 301 302 304 303 304 304 303 305 306 306 306 306 306 305 306 306 308 310 314 323 325 325 323 326 326 326 326 327 326 331 329 329 330 328 328 327 322 312 305 303 302 303 303 303 302 301 301
301 300 301 302 303 303 304 304 304 305 305 305 305 306 306 305 305 305 306 308 310 314 316 320 324 324 323 324 325 326 326 327 327 329 330 328 328 325 315 308 304 302 303 303 303 302 301 301 301
299 301 302 302 302 303 303 303 304 303 303 302 302 302 303 303 304 305 305 307 308 312 314 315 316 319 322 323 324 325 325 326 324 328 328 327 325 321 313 312 305 302 303 303 303 302 301 301 301
301 302 302 302 303 301 301 301 300 300 300 300 300 301 301 301 301 302 303 305 308 309 310 311 312 313 316 322 324 325 326 326 324 327 328 328 322 322 321 320 320 306 302 302 302 301 301 300 300
302 303 303 301 301 302 302 300 300 300 300 299 299 299 299 300 301 301 302 304 306 308 309 310 310 315 316 322 321 321 325 327 328 328 327 326 325 324 321 314 303 302 302 302 301 301 300 300 300
303 303 302 301 301 301 300 301 301 300 299 298 297 297 297 298 299 300 301 302 304 308 308 310 313 318 320 324 324 323 322 325 327 325 325 325 322 323 320 308 303 302 302 301 301 301 300 300 300
302 303 302 302 301 300 298 299 301 299 297 295 294 295 296 296 297 298 300 301 302 304 306 309 313 319 322 325 327 326 324 324 324 323 324 321 319 319 309 305 306 304 302 301 301 300 300 300 299
303 301 301 302 301 300 299 295 301 298 296 294 293 293 294 294 295 296 298 300 301 302 305 305 307 316 319 320 321 323 324 323 322 322 322 322 320 313 314 313 302 302 302 301 300 300 299 299 299
303 301 301 302 300 300 300 296 297 297 296 295 293 292 293 293 293 293 295 297 299 300 305 308 310 315 316 318 319 320 320 321 322 320 320 319 317 317 320 305 306 307 301 301 300 300 299 299 299
301 300 296 297 298 291 298 299 296 300 297 295 293 292 291 292 292 292 293 294 297 299 300 306 309 310 313 315 316 316 317 318 317 317 318 318 317 315 316 317 308 305 302 301 300 300 299 299 299
300 298 289 290 289 294 297 299 297 298 295 293 292 291 291 291 292 292 292 292 293 295 298 300 301 306 309 311 312 314 314 314 315 316 316 315 315 315 315 315 308 309 309 302 300 300 299 299 299
299 298 292 289 291 296 299 300 301 296 295 293 292 291 291 291 291 292 292 291 292 292 293 295 298 300 301 304 309 310 310 311 311 312 312 311 311 311 313 312 312 308 305 302 301 300 299 299 299
300 297 296 290 286 292 299 299 296 292 294 293 292 291 291 290 291 291 291 291 291 291 292 292 293 295 298 300 301 302 307 309 309 309 309 310 309 309 309 311 310 307 309 301 301 300 299 299 300
300 299 299 292 295 297 295 298 300 293 292 293 293 291 290 290 290 290 290 290 290 290 291 291 292 293 294 296 298 300 301 302 306 309 309 308 309 309 308 306 307 312 305 302 300 300 299 299 300
296 296 297 298 295 292 290 296 296 296 291 293 292 292 290 290 290 290 290 290 289 289 289 290 291 291 292 293 295 297 299 300 302 305 308 308 307 307 307 307 305 310 306 302 300 300 299 299 301
293 297 297 296 295 295 294 297 289 292 291 293 292 291 290 289 289 289 290 290 289 289 288 288 289 290 291 291 292 294 296 298 299 302 306 307 307 307 306 306 306 304 307 304 300 300 299 299 301
Wind_Speed
8 6 5 3 3 4 3 6 2 6 6 3 11 6 6 5 2 3 2 6 9 12 17 18 16 16 16 16 16 17 17 16 16 15 14 13 11 11 10 9 8 7 6 6 6 4 4 4 3
6 5 5 4 4 2 5 5 5 6 5 18 15 6 4 4 4 2 9 4 7 9 15 17 16 16 16 17 16 16 17 16 15 15 14 13 12 11 10 9 9 9 8 9 9 8 7 5 3
5 9 5 4 4 6 5 4 8 8 13 18 6 3 2 2 3 3 5 5 5 8 12 16 16 15 15 16 16 15 15 15 15 14 14 14 13 12 11 11 11 11 9 7 7 5 4 3 2
5 5 3 3 6 4 4 3 1 10 18 7 8 7 3 5 2 1 4 5 7 8 12 15 14 14 15 16 16 15 14 14 14 14 13 12 12 12 12 11 9 6 4 3 3 3 2 2 2
10 3 2 2 4 4 4 6 6 5 10 19 16 6 5 4 5 4 3 4 6 9 14 15 14 15 15 15 15 15 14 15 15 13 13 12 12 12 11 9 7 6 4 3 3 2 2 1 2
3 3 2 4 3 4 6 15 7 4 15 24 7 7 6 5 8 5 4 4 6 7 12 14 14 14 15 15 15 15 15 13 14 14 13 13 12 11 10 9 7 5 4 3 2 2 2 3 4
5 3 2 1 3 3 4 7 4 5 7 11 10 3 5 8 6 6 3 5 7 11 10 12 15 16 15 16 16 15 15 14 14 15 14 13 12 11 9 7 6 5 4 3 3 4 4 5 6
3 4 2 2 3 5 1 7 5 7 5 16 5 4 2 5 7 7 7 7 9 12 10 12 14 16 16 18 17 17 17 16 15 15 14 13 12 10 8 7 6 5 4 3 4 5 6 7 8
4 3 3 4 4 4 2 5 4 13 6 14 9 8 12 8 8 9 9 9 12 15 14 14 15 15 17 19 19 18 18 17 15 13 11 12 11 10 8 7 6 5 4 4 5 7 8 10 10
4 3 6 5 3 3 5 3 11 6 15 7 3 6 16 9 7 12 11 10 14 13 15 15 17 16 17 19 20 19 18 18 17 15 13 11 11 10 8 6 5 5 5 6 7 9 10 10 9
4 5 5 4 10 9 5 7 3 2 5 8 7 20 20 16 4 11 10 11 12 11 15 15 12 14 16 18 20 18 19 20 21 18 16 12 11 10 9 7 6 6 7 7 8 8 8 8 8
1 4 3 4 4 8 6 10 6 11 16 20 20 18 20 17 11 9 11 14 13 15 15 14 17 21 17 17 18 18 19 21 21 18 16 13 13 11 10 9 7 7 7 8 6 6 7 8 8
3 2 6 10 17 14 13 11 11 18 21 19 19 22 20 12 14 14 13 17 16 19 17 17 19 21 22 20 16 16 22 21 23 19 18 18 15 13 11 9 8 7 7 6 6 6 6 7 6
2 6 12 12 18 13 6 5 4 7 17 12 11 11 11 9 11 16 19 16 20 21 21 19 22 23 21 24 19 22 23 19 21 22 21 20 18 15 12 10 10 8 5 7 6 7 6 6 6
4 6 7 3 4 2 2 4 3 5 18 15 14 9 12 11 12 13 16 21 17 18 20 21 21 22 23 21 23 23 21 24 22 19 22 21 19 16 11 9 10 8 5 7 7 7 7 6 6
3 3 4 4 5 6 2 6 5 12 18 17 13 11 14 13 10 11 11 19 21 20 19 20 21 22 23 23 25 26 26 23 21 22 23 21 19 17 12 10 11 8 5 9 8 8 7 6 6
4 2 2 6 4 3 5 7 7 24 20 12 10 9 8 8 6 7 8 7 17 19 19 18 17 19 20 20 23 25 26 24 23 26 26 24 23 18 15 12 9 7 9 11 10 8 7 6 6
3 2 2 3 4 6 5 5 7 20 19 17 17 16 14 13 11 8 6 4 7 14 22 21 19 19 19 19 20 22 24 24 26 28 29 28 22 16 16 15 8 11 14 12 10 8 7 7 6
2 1 2 4 6 2 3 5 6 12 20 19 20 20 18 18 14 10 8 4 4 10 15 16 20 21 22 22 20 19 18 23 25 29 29 30 19 19 18 12 14 14 13 11 10 9 8 7 7
2 1 3 4 2 1 4 1 2 8 10 16 17 20 22 20 19 17 13 9 5 2 9 14 15 17 20 21 23 20 19 21 25 19 27 29 24 21 17 12 15 13 12 12 12 11 9 9 9
3 4 4 5 4 2 5 2 4 5 13 15 18 18 21 23 25 24 22 19 13 7 3 6 11 13 15 18 21 22 21 17 19 19 27 30 25 24 20 15 16 13 15 14 13 12 11 10 11
3 4 3 4 3 3 2 4 4 3 4 7 15 19 20 23 25 27 28 25 21 17 12 6 4 5 6 10 15 18 20 20 17 17 21 30 29 25 23 17 18 18 16 15 14 13 12 12 12
5 2 2 1 3 2 2 2 4 7 3 2 7 14 18 20 24 27 29 29 27 21 17 12 5 1 5 5 10 15 16 17 18 16 17 23 24 21 17 19 22 17 18 17 16 14 13 13 14
3 3 6 4 2 2 7 7 4 6 6 4 1 11 16 19 21 24 26 27 28 27 23 17 12 7 3 7 7 8 13 16 17 16 17 19 22 22 21 21 19 23 19 18 17 16 15 14 15
3 5 3 5 3 6 3 3 6 2 7 7 6 8 13 16 19 22 24 27 28 29 28 26 19 13 8 4 8 10 10 12 14 15 17 19 22 22 25 21 24 25 17 20 19 18 17 16 16
5 7 5 6 3 4 2 6 4 4 13 12 8 7 10 14 16 19 21 23 24 25 26 25 23 21 15 8 5 9 11 15 14 15 16 18 19 19 20 20 17 21 21 22 21 20 18 17 16
3 4 4 6 1 3 4 2 2 4 6 8 6 6 8 11 14 15 17 19 21 22 23 23 22 21 18 17 12 9 10 13 15 15 15 15 16 15 18 20 19 25 24 23 23 21 18 18 17
4 4 2 2 2 5 4 4 4 11 10 6 4 1 4 8 10 12 13 15 17 18 19 19 19 20 19 17 15 14 11 13 14 16 16 16 16 14 16 21 21 23 23 25 24 22 19 18 17
1 1 1 2 5 5 1 5 3 12 11 9 8 5 1 5 8 10 10 12 14 15 16 17 17 17 16 16 16 15 14 12 13 15 16 16 17 16 16 17 23 24 25 26 25 22 20 18 17
3 2 1 3 5 2 3 7 8 6 14 17 10 6 2 5 7 9 10 11 12 14 16 17 17 17 17 16 15 16 15 15 14 14 16 18 18 18 17 17 19 25 24 26 25 22 20 18 15
Wind_Direction
232 214 181 127 62 57 253 245 238 278 320 3 319 319 263 273 191 235 218 123 154 196 188 185 178 178 182 178 176 176 177 180 176 177 178 180 178 173 170 171 167 162 163 157 153 142 145 160 164
228 193 157 103 110 146 263 278 248 248 284 319 316 253 250 269 257 290 151 147 159 191 194 190 180 179 182 179 177 176 175 178 181 180 177 176 176 175 172 165 153 141 133 135 137 150 160 172 171
206 168 145 132 169 190 213 234 260 292 308 318 298 262 241 241 245 296 200 188 163 180 198 191 184 181 182 181 180 180 177 176 180 180 178 179 176 173 167 158 150 142 143 157 155 164 170 187 217
160 150 91 125 225 258 209 247 198 323 325 328 337 296 247 218 235 222 206 195 180 178 185 187 185 180 185 183 181 178 179 179 179 179 178 169 163 167 168 169 169 174 175 162 159 167 188 214 255
162 133 89 262 263 276 266 276 291 307 302 291 310 284 281 217 209 214 223 209 194 182 182 185 182 184 186 185 182 180 182 177 173 162 166 167 176 173 174 177 171 174 174 174 172 194 217 250 285
118 106 82 247 277 284 295 272 273 251 289 295 298 257 255 237 207 216 214 200 194 183 186 189 188 187 186 185 185 182 182 184 175 169 175 183 181 179 179 177 182 188 185 185 187 223 265 284 290
125 95 196 265 276 307 254 323 239 300 308 312 291 245 271 235 211 199 189 197 189 178 182 197 199 190 184 190 185 186 190 191 183 180 185 187 185 183 185 188 189 193 196 217 247 268 283 289 295
129 93 91 253 227 258 31 351 338 1 307 338 319 290 315 323 221 227 223 222 197 200 191 196 206 202 192 189 191 190 190 191 196 199 191 190 190 191 191 194 199 214 229 249 265 278 285 292 297
120 67 214 239 186 254 355 20 331 332 306 342 358 14 339 318 197 216 220 215 216 211 209 201 205 206 204 195 197 199 198 198 201 207 196 191 193 195 200 207 216 233 250 265 279 289 295 298 300
114 158 216 218 235 272 312 299 331 327 323 322 323 10 5 355 193 226 233 232 232 231 225 213 207 214 212 210 204 200 203 205 210 210 202 198 200 204 212 222 234 247 260 271 282 290 294 297 302
174 208 210 249 276 329 295 305 280 315 307 295 297 310 321 341 265 242 239 253 256 244 236 239 222 217 226 225 217 210 209 213 216 216 215 212 217 216 219 226 235 252 265 278 286 288 292 298 302
277 267 281 298 307 317 304 312 290 252 264 294 296 301 301 316 308 284 271 257 253 251 246 240 234 238 275 239 227 230 223 225 231 224 225 226 227 226 226 224 231 246 270 282 282 286 295 299 302
207 265 272 278 290 284 274 265 272 285 299 287 281 281 293 294 290 283 284 258 252 244 250 245 239 243 239 235 222 230 240 233 243 236 235 227 229 227 223 232 232 250 266 275 278 286 293 298 301
302 282 280 289 288 281 258 282 355 13 0 342 296 286 301 334 330 276 264 265 252 245 247 246 244 246 246 248 237 240 242 241 243 251 245 239 224 219 217 231 248 244 264 275 280 289 294 298 300
299 316 327 293 338 319 287 327 204 317 348 359 2 350 329 331 315 297 261 245 248 254 251 247 245 243 250 248 256 249 251 240 243 245 248 246 236 216 214 230 256 252 249 282 283 287 292 296 296
11 54 3 307 3 13 38 274 262 336 343 335 341 325 320 325 315 303 295 251 238 238 248 250 251 244 250 253 255 252 255 249 261 254 246 251 231 212 205 229 250 241 273 284 283 283 285 290 286
10 250 245 321 63 50 61 284 345 342 339 356 26 20 357 344 327 317 314 287 244 240 242 248 251 257 254 252 252 254 257 246 264 261 242 238 215 207 198 222 239 272 271 272 272 273 279 284 278
219 227 270 267 312 4 320 278 1 22 47 40 37 38 40 35 26 9 339 310 249 243 244 244 247 257 253 249 251 254 254 241 249 258 246 244 210 205 221 212 225 262 256 254 259 266 274 275 268
113 164 258 265 282 259 256 346 19 31 38 26 23 25 35 38 36 34 23 353 246 234 236 240 239 244 247 243 249 256 254 245 246 248 243 248 214 230 233 231 237 240 247 256 262 269 268 261 250
156 225 267 284 253 282 356 68 81 37 47 40 23 21 21 37 44 43 38 37 30 262 245 243 243 235 241 244 247 256 260 253 248 263 252 239 224 216 213 232 249 249 258 263 267 268 264 257 246
220 193 199 218 328 314 356 266 214 73 54 50 48 47 47 39 41 43 43 39 36 31 338 270 247 237 240 244 246 253 257 252 252 254 247 239 223 212 199 214 247 251 257 259 263 264 262 259 254
291 226 192 168 114 231 60 276 213 129 60 34 37 42 41 45 49 47 46 45 42 36 24 344 280 239 280 265 264 256 257 267 276 272 270 243 239 209 211 208 239 245 255 260 262 262 263 262 259
232 138 138 113 113 46 269 77 278 137 146 32 17 46 45 45 46 46 47 48 47 47 42 36 32 176 217 244 264 259 262 265 268 270 270 263 242 230 224 220 234 245 257 261 263 264 262 262 260
133 108 46 42 81 354 218 174 229 190 176 170 65 54 47 44 46 48 47 48 49 49 50 50 47 43 318 257 252 261 264 265 269 275 273 269 259 242 232 231 241 251 252 260 262 262 262 264 263
106 76 329 348 7 225 346 149 257 145 131 145 136 68 50 45 42 41 40 40 40 43 44 45 44 41 31 331 298 275 258 269 277 280 280 280 275 265 242 222 243 240 253 262 262 262 262 265 268
187 159 163 214 211 268 104 233 280 124 133 131 113 69 53 48 42 38 36 35 35 35 36 38 39 40 30 12 347 291 285 265 264 271 277 282 283 280 263 240 229 247 260 262 263 262 263 267 269
194 184 169 109 108 42 238 300 177 142 156 153 130 64 47 38 36 36 33 30 28 26 26 27 26 28 28 26 10 326 304 282 269 264 263 271 280 279 262 250 230 251 260 258 261 259 262 267 269
170 152 126 4 157 236 279 279 251 194 192 180 191 120 42 29 27 27 25 24 22 19 17 15 13 15 13 12 11 3 334 297 286 272 264 259 265 269 266 253 254 237 259 254 256 257 259 267 271
59 248 36 139 154 182 242 255 333 212 178 165 196 207 322 5 7 6 7 7 7 7 6 5 3 3 4 360 355 353 350 326 295 282 267 252 248 250 259 259 256 236 257 254 252 256 258 264 267
285 288 174 171 237 224 156 259 340 145 150 165 191 212 322 323 332 339 336 343 350 354 357 360 356 354 353 352 347 339 338 337 319 288 274 264 248 245 251 254 253 247 239 253 248 252 257 261 264